Weather History for KCHS - January, 2015

Change the Weather History Date:

Tuesday, January 27, 2015

  Actual Average Record
Temperature  
Mean Temperature 43 °F 49 °F  
Max Temperature 51 °F 60 °F 82 °F (1950)
Min Temperature 34 °F 38 °F 14 °F (1940)
Degree Days  
Heating Degree Days 22 16  
Month to date heating degree days 413 456  
Since 1 July heating degree days 1109 1194  
Cooling Degree Days 0 0  
Month to date cooling degree days 4 0  
Year to date cooling degree days 4 0  
Moisture  
Dew Point 27 °F    
Average Humidity 53    
Maximum Humidity 76    
Minimum Humidity 30    
Precipitation  
Precipitation 0.00 in 0.12 in 1.57 in (1998)
Month to date precipitation 3.53 3.24  
Year to date precipitation 3.53 3.24  
Sea Level Pressure  
Sea Level Pressure 29.88 in    
Wind  
Wind Speed 9 mph (WNW)    
Max Wind Speed 17 mph    
Max Gust Speed 24 mph    
Visibility 10 miles    
Events      
T = Trace of Precipitation, MM = Missing Value Source: NWS Daily Summary

Daily Weather History Graph

Daily Weather History Graph

Search for Another Location

Airport or City:

Trip Planner

Search our weather history database for the weather conditions in past years. The results will help you decide how hot, cold, wet, or windy it might be!

Date:

Astronomy

Jan. 27, 2015 Rise Set
Actual Time 7:18 AM EST 5:47 PM EST
Civil Twilight 6:52 AM EST 6:13 PM EST
Nautical Twilight 6:22 AM EST 6:43 PM EST
Astronomical Twilight 5:53 AM EST 7:12 PM EST
Moon 12:06 PM EST (1/27) 12:49 AM EST (1/27)
Length of Visible Light 11h 21m
Length of Day
10h 29m
First Quarter, 55% of the Moon is Illuminated
Jan 27
First Quarter
Feb 3
Full
Feb 11
Last Quarter
Feb 18
New
Feb 25
First Quarter

Hourly Weather History & Observations

Time (EST) Temp. Windchill Dew Point Humidity Pressure Visibility Wind Dir Wind Speed Gust Speed Precip Events Conditions
12:56 AM 42.1 °F 35.7 °F 30.9 °F 65% 29.79 in 10.0 mi WNW 11.5 mph 23.0 mph N/A   Mostly Cloudy
1:56 AM 39.9 °F 32.5 °F 30.0 °F 68% 29.79 in 10.0 mi West 12.7 mph 18.4 mph N/A   Partly Cloudy
2:56 AM 39.0 °F 31.0 °F 30.0 °F 70% 29.81 in 10.0 mi WNW 13.8 mph 21.9 mph N/A   Partly Cloudy
3:56 AM 37.9 °F 31.5 °F 28.9 °F 70% 29.82 in 10.0 mi WNW 9.2 mph - N/A   Clear
4:56 AM 37.0 °F 29.8 °F 28.9 °F 73% 29.83 in 10.0 mi WNW 10.4 mph - N/A   Clear
5:56 AM 36.0 °F 29.0 °F 28.0 °F 73% 29.83 in 10.0 mi West 9.2 mph - N/A   Clear
6:56 AM 35.1 °F 28.6 °F 27.0 °F 72% 29.85 in 10.0 mi West 8.1 mph - N/A   Clear
7:56 AM 35.1 °F 28.6 °F 27.0 °F 72% 29.87 in 10.0 mi WNW 8.1 mph - N/A   Clear
8:56 AM 37.9 °F 30.9 °F 28.0 °F 68% 29.88 in 10.0 mi NW 10.4 mph 19.6 mph N/A   Clear
9:56 AM 42.1 °F 34.5 °F 26.1 °F 53% 29.88 in 10.0 mi NW 15.0 mph - N/A   Partly Cloudy
10:56 AM 45.0 °F 38.9 °F 24.1 °F 44% 29.88 in 10.0 mi NNW 12.7 mph - N/A   Mostly Cloudy
11:56 AM 46.9 °F - 21.0 °F 36% 29.86 in 10.0 mi NNW 11.5 mph - N/A   Scattered Clouds
12:56 PM 50.0 °F - 21.9 °F 33% 29.85 in 10.0 mi WNW 10.4 mph - N/A   Mostly Cloudy
1:56 PM 50.0 °F - 21.9 °F 33% 29.85 in 10.0 mi NW 9.2 mph - N/A   Scattered Clouds
2:56 PM 51.1 °F - 21.0 °F 31% 29.85 in 10.0 mi NW 13.8 mph 21.9 mph N/A   Scattered Clouds
3:56 PM 51.1 °F - 25.0 °F 36% 29.88 in 10.0 mi NNW 12.7 mph 21.9 mph N/A   Scattered Clouds
4:56 PM 48.9 °F - 21.9 °F 35% 29.90 in 10.0 mi WNW 10.4 mph - N/A   Partly Cloudy
5:56 PM 45.0 °F 41.8 °F 24.1 °F 44% 29.92 in 10.0 mi NW 5.8 mph - N/A   Partly Cloudy
6:56 PM 42.1 °F 39.2 °F 26.1 °F 53% 29.96 in 10.0 mi WNW 4.6 mph - N/A   Partly Cloudy
7:56 PM 39.9 °F 36.7 °F 28.0 °F 63% 29.97 in 10.0 mi West 4.6 mph - N/A   Clear
8:56 PM 39.0 °F - 28.9 °F 67% 29.98 in 10.0 mi Calm Calm - N/A   Clear
9:56 PM 36.0 °F - 28.9 °F 76% 29.99 in 10.0 mi Calm Calm - N/A   Clear
10:56 PM 37.0 °F - 30.0 °F 76% 30.00 in 10.0 mi Calm Calm - N/A   Clear
11:56 PM 39.0 °F 33.4 °F 28.9 °F 67% 30.02 in 10.0 mi NW 8.1 mph - N/A   Clear